Location: Namasale
(1.5000°N, 32.6167°E)
Time: 18:47:56
(UTC+00:00)

Altair - All Passes

Search period start: 19 April 2021 00:00
Search period end: 29 April 2021 00:00
Orbit: 1501 x 1683 km, 47.2° (Epoch: 19 April)

Date Brightness Start Highest point End Pass type
(mag) Time Alt. Az. Time Alt. Az. Time Alt. Az.
19 Apr - 01:10:35 10° SW 01:20:42 69° NW 01:30:36 10° NNE visible
19 Apr - 03:22:06 10° WNW 03:26:00 13° NW 03:29:53 10° NNW visible
19 Apr - 11:55:42 10° NNW 12:04:40 60° NE 12:13:44 10° SE daylight
19 Apr - 14:01:48 10° WNW 14:09:11 27° SW 14:16:45 10° S daylight
19 Apr - 22:43:07 10° S 22:50:37 23° SE 22:58:04 10° E visible
20 Apr - 00:45:19 10° SW 00:55:29 77° NW 01:05:29 10° NE visible
20 Apr - 02:55:34 10° WNW 03:00:40 15° NW 03:05:43 10° NNW visible
20 Apr - 11:30:40 10° NNW 11:39:32 53° NE 11:48:26 10° SE daylight
20 Apr - 13:36:14 10° WNW 13:43:59 31° SW 13:51:55 10° S daylight
20 Apr - 22:18:26 10° S 22:25:21 20° SE 22:32:13 10° E visible
21 Apr - 00:20:04 10° SW 00:30:17 85° NW 00:40:20 10° NE visible
21 Apr - 02:29:22 10° W 02:35:22 17° NW 02:41:19 10° N visible
21 Apr - 11:05:40 10° NNW 11:14:22 47° NE 11:23:05 10° ESE daylight
21 Apr - 13:10:45 10° WNW 13:18:48 35° SW 13:27:02 10° SSE daylight
21 Apr - 21:53:52 10° S 22:00:04 18° SE 22:06:14 10° E night (unlit)
21 Apr - 23:54:51 10° SW 00:05:05 87° SE 00:15:09 10° NE visible
22 Apr - 02:03:19 10° W 02:10:04 20° NW 02:16:45 10° N visible
22 Apr - 10:40:42 10° NNW 10:49:12 42° NE 10:57:41 10° ESE daylight
22 Apr - 12:45:19 10° WNW 12:53:38 39° SW 13:02:07 10° SSE daylight
22 Apr - 21:29:27 10° SSE 21:34:46 15° SE 21:40:04 10° E night (unlit)
22 Apr - 23:29:41 10° SW 23:39:52 79° SE 23:49:56 10° NE visible
23 Apr - 01:37:26 10° W 01:44:47 23° NW 01:52:04 10° N visible
23 Apr - 10:15:46 10° NNW 10:24:02 37° NE 10:32:15 10° ESE daylight
23 Apr - 12:19:55 10° WNW 12:28:28 45° SW 12:37:10 10° SSE daylight
23 Apr - 21:05:17 10° SSE 21:09:27 13° SE 21:13:37 10° ESE night (unlit)
23 Apr - 23:04:32 10° SSW 23:14:40 71° SE 23:24:42 10° NE visible
24 Apr - 01:11:38 10° W 01:19:30 26° NW 01:27:19 10° N visible
24 Apr - 09:50:52 10° NNW 09:58:51 33° NE 10:06:45 10° ESE daylight
24 Apr - 11:54:34 10° WNW 12:03:19 50° SW 12:12:10 10° SSE daylight
24 Apr - 20:41:43 10° SSE 20:44:07 11° SE 20:46:31 10° ESE night (unlit)
24 Apr - 22:39:25 10° SSW 22:49:27 64° SE 22:59:25 10° NE visible
25 Apr - 00:45:55 10° WSW 00:54:15 29° NW 01:02:30 10° N visible
25 Apr - 09:26:00 10° N 09:33:39 29° NE 09:41:13 10° ESE daylight
25 Apr - 11:29:15 10° NW 11:38:09 57° SW 11:47:09 10° SSE daylight
25 Apr - 22:14:21 10° SSW 22:24:14 58° SE 22:34:05 10° NE visible
26 Apr - 00:20:18 10° WSW 00:28:59 33° NW 00:37:39 10° NNE visible
26 Apr - 09:01:11 10° N 09:08:27 26° NE 09:15:37 10° E daylight
26 Apr - 11:03:58 10° NW 11:13:01 64° SW 11:22:07 10° SSE daylight
26 Apr - 21:49:18 10° SSW 21:59:02 51° SE 22:08:44 10° ENE night (unlit)
26 Apr - 23:54:43 10° WSW 00:03:45 37° NW 00:12:44 10° NNE visible
27 Apr - 08:36:26 10° N 08:43:13 23° NE 08:49:56 10° E daylight
27 Apr - 10:38:45 10° NW 10:47:52 72° SW 10:57:02 10° SSE daylight
27 Apr - 12:50:06 10° WSW 12:52:50 11° SW 12:55:34 10° SSW daylight
27 Apr - 21:24:17 10° SSW 21:33:49 46° SE 21:43:19 10° ENE night (unlit)
27 Apr - 23:29:13 10° WSW 23:38:31 41° NW 23:47:46 10° NNE visible
28 Apr - 08:11:44 10° N 08:18:00 20° NE 08:24:10 10° E daylight
28 Apr - 10:13:32 10° NW 10:22:44 80° SW 10:31:56 10° SE daylight
28 Apr - 12:23:27 10° WSW 12:27:34 14° SW 12:31:43 10° SSW daylight
28 Apr - 20:59:19 10° SSW 21:08:35 41° SE 21:17:52 10° ENE night (unlit)
28 Apr - 23:03:45 10° WSW 23:13:17 46° NW 23:22:48 10° NNE visible
